Date,TemperatureHighF,TemperatureAvgF,TemperatureLowF,DewpointHighF,DewpointAvgF,DewpointLowF,HumidityHigh,HumidityAvg,HumidityLow,PressureMaxIn,PressureMinIn,WindSpeedMaxMPH,WindSpeedAvgMPH,GustSpeedMaxMPH,PrecipitationSumIn
2013-3-1,34,29,27,27,23,16,92,77,63,30.25,30.09,12,8,18,0.01
2013-3-2,34,27,19,23,16,12,86,64,40,30.29,30.21,15,7,20,0.00
2013-3-3,36,27,16,21,16,10,85,64,43,30.21,30.00,8,4,0,0.00
2013-3-4,48,38,34,30,26,21,74,62,36,30.00,29.78,15,10,22,0.00
2013-3-5,36,33,30,32,26,18,100,76,51,30.18,29.86,24,15,35,0.01
2013-3-6,36,30,21,21,19,16,79,64,51,30.38,30.18,24,10,30,0.00
2013-3-7,43,30,18,28,20,14,92,68,41,30.41,30.30,10,4,0,0.00
2013-3-8,52,41,30,30,28,25,86,61,34,30.37,30.15,13,8,18,0.00
2013-3-9,59,48,39,43,35,28,93,64,35,30.15,29.73,16,9,22,0.76
2013-3-10,54,50,39,50,47,37,93,90,76,29.76,29.58,18,7,23,0.61
2013-3-11,39,34,32,37,29,23,93,84,64,29.96,29.70,21,14,29,0.00
2013-3-12,43,32,27,27,23,19,86,70,52,30.22,29.95,23,12,31,0.00
2013-3-13,39,32,25,21,16,10,68,51,30,30.43,30.22,17,10,27,0.00
2013-3-14,61,42,28,34,24,16,68,49,31,30.38,30.06,17,-15,23,0.00
2013-3-15,73,53,36,46,35,27,75,53,25,30.09,29.65,14,5,17,0.00
2013-3-16,52,42,37,43,33,28,93,72,60,30.09,29.64,15,8,22,0.00
2013-3-17,39,36,34,32,27,23,93,72,51,30.11,29.82,14,8,21,0.10
2013-3-18,50,39,32,36,29,16,93,70,29,30.02,29.71,28,12,38,0.01
2013-3-19,45,35,28,19,12,5,55,39,22,30.21,30.01,18,10,23,0.00
2013-3-20,36,29,21,25,10,1,69,47,26,30.29,30.13,22,12,29,0.00
2013-3-21,39,27,16,14,9,3,67,47,23,30.13,29.98,8,3,0,0.00
2013-3-22,41,33,25,23,17,14,73,52,35,30.05,29.99,9,3,0,0.00
2013-3-23,52,43,36,32,21,16,80,45,25,30.06,29.89,12,5,20,0.00
2013-3-24,37,32,32,32,30,28,92,91,80,29.94,29.71,20,13,24,0.00
2013-3-25,36,32,30,30,26,19,92,77,51,30.20,29.88,17,11,24,0.00
2013-3-26,41,34,30,23,21,19,74,59,44,30.34,30.20,14,8,0,0.05
2013-3-27,45,36,25,25,20,18,79,55,35,30.39,30.29,8,3,0,0.00
2013-3-28,54,44,36,30,26,21,65,50,36,30.34,30.24,12,6,16,0.00
2013-3-29,63,49,36,39,33,30,80,57,31,30.27,30.19,9,5,0,0.00
2013-3-30,55,49,45,46,40,-100,87,74,50,30.20,29.92,20,8,29,0.00
2013-3-31,66,54,45,48,39,23,93,61,27,30.00,29.86,18,9,24,0.00